Wind_Speed
6 7 10 11 13 17 17 13 11 9 13 14 18 22 24 25 27 26 24 22 19 18 14 9 8 7 4 5 9 10 12 16 18 19 25 21 23 26 28 27 32 31 29 28
11 15 12 13 13 15 23 17 15 11 13 15 20 24 24 24 26 25 25 25 21 21 16 11 10 10 8 9 13 14 14 18 22 23 26 25 26 25 26 29 29 31 31 32
15 18 15 14 12 18 22 21 17 15 18 19 20 23 20 16 16 18 23 27 26 23 18 15 15 11 12 12 14 15 18 27 25 26 27 28 29 27 26 28 28 29 31 33
15 20 10 9 22 21 22 22 12 16 20 14 15 9 23 12 15 15 17 26 27 24 20 17 16 15 14 13 14 18 22 24 26 27 28 29 26 24 23 26 27 28 30 32
19 21 20 23 21 23 21 13 12 16 18 17 16 7 19 14 19 13 17 13 21 22 22 20 18 16 14 14 15 16 27 25 30 29 30 25 23 24 24 24 25 27 26 28
20 23 24 23 16 15 11 12 16 19 17 9 15 11 12 19 17 18 15 12 13 19 23 18 15 14 15 17 19 25 22 25 29 29 23 23 25 27 27 29 30 27 28 27
23 21 22 18 13 12 9 12 8 7 4 11 9 7 20 17 15 14 10 13 13 15 12 11 8 11 15 20 18 28 19 24 25 22 24 26 28 30 32 36 36 32 31 29
18 19 14 12 12 12 10 12 8 9 10 17 7 7 10 14 16 13 10 10 12 10 11 8 11 12 21 26 24 18 23 22 22 27 31 31 32 35 38 41 41 38 35 31
11 15 15 15 12 10 10 8 14 12 13 5 4 9 17 16 15 14 12 11 11 10 13 15 13 21 19 18 19 19 22 21 25 31 34 35 35 38 39 42 40 40 37 31
14 10 12 13 13 11 9 11 8 7 4 5 2 8 12 17 16 14 9 8 10 13 15 18 20 21 29 21 17 21 24 25 29 34 36 37 37 39 42 43 41 40 34 29
14 9 9 10 10 10 8 7 6 6 5 4 5 9 17 11 14 13 8 10 13 16 18 20 20 22 19 18 20 25 26 28 32 36 40 41 41 42 42 42 40 36 31 28
10 10 9 7 7 7 4 2 5 5 5 6 6 6 11 16 17 13 11 14 17 18 19 20 20 20 25 15 22 25 25 31 35 42 43 42 41 40 40 38 36 34 30 27
3 5 3 2 2 4 6 9 11 13 13 9 9 6 16 19 13 15 16 15 17 18 17 19 21 20 11 26 22 25 29 34 41 45 42 39 38 38 37 34 32 30 28 25
4 6 6 5 5 8 8 8 10 12 6 7 4 15 18 18 20 18 16 16 16 17 19 20 26 20 20 21 22 27 34 41 44 41 38 38 35 34 33 32 30 28 25 22
6 4 3 5 5 5 11 11 6 4 6 4 11 12 17 19 19 19 16 16 15 18 16 25 29 17 16 21 28 36 41 42 39 36 35 35 33 32 30 29 28 26 22 20
3 3 5 5 2 11 7 4 4 5 8 11 12 9 17 20 22 17 15 15 17 21 24 23 18 17 22 31 35 38 36 35 34 34 34 33 32 30 29 28 26 24 21 19
2 3 6 2 7 7 3 4 4 5 11 11 12 15 18 21 18 13 12 13 13 15 17 18 21 25 29 30 30 31 32 31 32 34 34 33 32 30 28 26 25 24 20 17
6 6 6 5 4 2 3 2 5 4 10 7 13 17 20 18 16 15 15 15 13 14 17 21 23 25 27 26 28 29 30 31 33 33 32 32 31 30 28 25 23 22 19 16
6 5 5 2 3 4 1 3 3 5 9 7 17 21 19 17 16 14 16 15 15 16 20 22 23 23 25 26 27 28 30 30 31 33 33 32 32 32 30 26 22 20 16 14
3 3 6 4 1 2 2 4 6 9 3 13 20 18 17 16 10 11 17 16 18 23 24 23 23 24 25 26 27 28 29 31 33 34 33 35 37 37 29 24 22 18 15 11
4 4 4 4 2 3 4 5 7 4 7 15 17 16 14 13 14 16 17 20 23 23 20 22 23 24 24 24 25 27 29 31 34 33 35 40 34 35 26 21 19 15 9 7
3 2 3 3 4 3 4 7 7 10 13 15 16 14 14 16 17 18 21 22 21 21 21 21 21 21 22 22 25 26 28 31 33 31 36 39 32 28 22 20 13 9 6 4
4 5 3 5 4 6 6 10 12 13 16 16 14 14 16 17 16 18 20 23 22 20 19 19 19 20 20 22 25 26 28 30 31 31 34 35 29 25 21 19 10 8 9 4
8 6 5 5 5 7 10 12 14 14 16 16 14 16 16 13 14 16 16 15 19 21 19 18 19 19 19 20 23 25 26 27 29 31 32 32 28 23 20 15 11 6 7 6
8 7 7 6 7 10 13 16 15 14 15 13 15 15 13 12 14 15 16 21 24 25 24 19 18 18 19 20 21 23 24 25 27 29 28 27 24 23 19 14 14 12 8 10
9 8 7 7 9 14 17 14 11 9 9 10 11 12 13 14 16 19 20 22 27 27 26 22 19 19 20 21 21 21 22 23 24 25 25 22 21 22 18 15 13 10 6 9
Wind_Direction
268 281 283 316 315 325 318 305 282 295 281 290 299 307 299 297 290 276 264 259 258 255 260 271 256 255 283 328 340 324 326 320 319 305 307 304 295 293 296 289 294 298 300 297
260 273 298 295 311 331 341 299 306 295 281 286 298 300 301 299 300 285 265 257 260 249 257 263 259 258 293 320 323 319 319 326 324 313 309 307 304 301 300 298 298 298 297 292
261 276 292 294 302 330 329 317 299 292 285 283 290 293 306 315 317 300 278 258 257 247 250 251 256 270 286 310 311 315 311 323 318 313 307 306 308 305 304 303 303 300 297 291
264 281 283 283 304 316 311 321 295 287 286 285 294 285 298 301 327 316 300 269 262 250 246 257 257 263 277 289 299 309 313 313 315 317 313 311 309 308 307 305 304 299 294 293
263 279 288 296 308 311 305 292 280 292 286 282 279 251 290 302 325 317 317 276 261 254 250 255 256 266 269 275 284 301 311 302 315 316 316 313 308 306 305 304 310 311 305 297
270 281 292 302 304 298 282 280 279 288 277 269 279 244 287 305 314 317 302 279 261 253 249 242 263 269 272 286 283 288 307 298 309 311 311 303 301 305 312 320 323 315 311 307
271 278 287 292 289 268 263 269 282 273 264 289 278 228 292 299 310 319 294 296 263 269 261 243 288 292 298 282 299 320 313 305 312 324 318 314 318 322 326 326 328 325 318 310
258 279 293 300 266 259 267 269 264 294 294 309 273 243 309 326 348 341 327 296 295 278 231 243 308 304 279 275 312 322 323 306 316 331 333 329 326 327 325 322 321 323 320 314
255 264 282 267 245 274 293 270 282 279 279 260 277 297 327 340 343 341 321 312 304 286 272 256 274 280 287 290 336 327 320 317 321 326 327 328 324 319 313 316 316 310 313 311
247 264 272 251 265 288 269 283 290 280 280 292 253 307 317 330 340 329 329 319 292 278 277 279 275 277 293 302 321 327 318 319 320 323 323 318 312 309 311 312 311 310 310 306
235 249 271 287 272 270 285 301 291 267 264 302 321 315 322 338 339 337 306 307 288 281 282 287 283 276 282 309 315 319 314 313 314 319 318 312 308 310 310 311 310 307 306 300
257 269 282 283 262 268 286 318 333 292 296 290 287 306 0 351 339 324 315 310 292 283 287 282 276 270 301 306 319 302 306 309 312 316 314 312 310 311 310 309 307 305 302 297
272 257 268 258 210 214 284 301 308 309 299 276 293 314 348 339 333 325 325 325 295 287 290 276 268 301 304 319 294 299 309 314 313 313 313 311 311 311 309 307 304 302 299 294
259 259 260 279 276 291 308 328 317 306 286 302 306 330 341 339 334 338 332 321 304 288 289 276 300 294 327 305 295 308 312 311 310 312 313 311 312 310 309 306 304 301 298 295
301 268 265 338 343 350 329 326 326 20 35 13 334 346 346 349 345 348 346 331 313 292 293 310 312 331 314 306 309 310 309 309 312 313 314 316 315 313 310 308 305 303 302 298
283 269 319 329 262 324 313 18 7 32 15 0 2 4 350 342 340 343 347 331 322 320 311 318 328 319 309 308 309 307 309 313 316 319 320 320 319 316 313 310 308 307 304 295
282 313 327 280 313 315 146 0 27 23 11 1 7 346 335 332 336 336 325 318 320 316 319 318 312 308 307 309 311 315 320 322 325 326 326 324 321 317 313 312 309 305 304 293
289 296 294 279 327 225 312 334 340 356 352 348 348 337 331 334 338 336 335 330 328 320 316 314 314 316 318 321 322 326 328 331 331 329 328 326 322 317 309 305 308 305 302 294
252 259 261 250 308 295 50 328 332 329 328 316 336 335 334 335 339 340 338 339 335 331 332 327 327 326 326 328 332 335 335 333 332 334 330 325 323 320 314 306 306 311 300 294
233 268 246 273 263 267 260 315 312 320 286 322 328 329 330 335 344 338 336 335 335 336 333 330 330 331 331 335 337 339 337 336 337 336 331 333 335 331 324 310 308 314 312 299
285 290 252 233 261 257 246 319 326 323 301 315 324 325 334 343 335 330 334 337 335 332 334 332 332 332 334 336 339 340 339 341 340 337 341 342 335 331 330 327 325 318 317 294
245 238 265 244 285 228 277 307 327 312 306 318 318 323 335 336 334 336 337 341 342 336 332 329 329 330 333 335 340 343 343 348 343 343 343 342 341 339 339 345 346 339 336 299
230 243 258 265 246 273 295 313 311 310 311 318 316 324 333 332 340 344 342 342 345 333 327 325 327 330 332 336 342 347 348 350 343 346 346 343 346 347 342 350 6 18 8 345
225 240 240 256 264 285 301 307 306 304 306 313 319 322 331 339 347 347 337 349 358 349 334 323 326 329 333 337 342 347 349 350 346 351 352 350 355 3 6 10 12 9 8 39
237 245 238 246 273 297 308 312 304 294 297 311 313 321 334 349 346 343 349 357 354 350 347 332 326 328 331 333 341 346 347 347 348 353 356 2 9 19 18 24 31 41 71 28
249 238 230 261 300 317 316 315 309 305 305 315 323 333 338 343 347 345 346 345 346 345 345 336 326 327 332 335 339 342 344 344 348 355 2 8 18 24 23 34 42 44 63 48
Height
3198 3199 3198 3198 3197 3195 3193 3191 3190 3189 3188 3186 3185 3182 3180 3179 3176 3174 3175 3175 3175 3175 3173 3172 3173 3173 3172 3172 3171 3170 3169 3167 3166 3164 3162 3158 3155 3152 3148 3145 3141 3138 3135 3133
3198 3195 3197 3195 3194 3193 3190 3189 3187 3186 3185 3184 3182 3180 3177 3174 3172 3170 3170 3171 3172 3171 3170 3169 3169 3170 3170 3168 3168 3167 3166 3164 3161 3159 3156 3153 3150 3147 3143 3139 3136 3132 3129 3127
3194 3194 3194 3193 3192 3191 3189 3186 3184 3184 3182 3180 3178 3177 3175 3172 3169 3167 3166 3166 3166 3166 3167 3167 3167 3168 3167 3167 3166 3165 3164 3160 3157 3154 3152 3148 3144 3140 3137 3133 3130 3127 3123 3120
3192 3191 3191 3190 3190 3189 3186 3183 3181 3180 3179 3179 3176 3174 3170 3169 3167 3165 3163 3161 3162 3163 3163 3164 3166 3166 3166 3165 3165 3163 3160 3157 3153 3149 3147 3143 3138 3135 3132 3128 3125 3121 3117 3112
3191 3189 3189 3188 3186 3185 3182 3180 3178 3177 3175 3174 3172 3173 3166 3166 3164 3161 3160 3158 3157 3159 3160 3161 3162 3163 3163 3162 3160 3159 3157 3152 3149 3145 3140 3137 3134 3130 3127 3123 3118 3113 3109 3104
3186 3184 3184 3183 3182 3180 3178 3177 3176 3173 3171 3171 3168 3168 3164 3162 3161 3159 3156 3155 3155 3157 3156 3158 3160 3159 3159 3158 3156 3154 3151 3148 3144 3140 3135 3133 3130 3125 3121 3116 3112 3107 3102 3098
3181 3180 3180 3178 3177 3176 3175 3175 3172 3170 3167 3165 3164 3165 3160 3159 3157 3156 3154 3152 3152 3152 3153 3155 3155 3156 3154 3153 3152 3149 3145 3143 3139 3135 3132 3128 3123 3118 3113 3109 3104 3099 3095 3091
3176 3176 3175 3174 3174 3173 3171 3172 3171 3166 3163 3162 3163 3160 3157 3156 3155 3153 3152 3151 3150 3150 3150 3151 3150 3150 3149 3147 3146 3143 3140 3138 3134 3130 3126 3121 3117 3112 3107 3102 3097 3091 3086 3083
3172 3171 3171 3170 3170 3171 3169 3168 3168 3165 3162 3161 3159 3157 3156 3155 3152 3151 3150 3149 3148 3148 3148 3148 3147 3146 3145 3142 3139 3137 3136 3133 3129 3124 3120 3115 3110 3105 3100 3094 3089 3084 3079 3075
3168 3169 3168 3168 3168 3168 3168 3167 3165 3163 3159 3156 3156 3156 3155 3153 3151 3149 3147 3146 3145 3145 3144 3143 3143 3141 3138 3135 3134 3132 3130 3127 3123 3118 3113 3108 3104 3098 3092 3086 3080 3075 3071 3067
3164 3166 3167 3167 3166 3165 3165 3164 3163 3162 3160 3157 3154 3156 3152 3151 3149 3147 3145 3144 3143 3141 3140 3139 3138 3136 3133 3131 3130 3128 3125 3121 3116 3111 3106 3101 3095 3088 3083 3076 3071 3066 3063 3059
3162 3163 3163 3163 3162 3162 3161 3161 3160 3159 3159 3157 3156 3154 3151 3149 3147 3144 3143 3141 3139 3137 3135 3134 3133 3132 3129 3129 3126 3123 3119 3115 3110 3104 3098 3091 3085 3080 3073 3068 3063 3058 3055 3052
3160 3160 3161 3161 3163 3160 3159 3158 3157 3156 3155 3154 3153 3152 3148 3146 3143 3141 3139 3137 3135 3132 3131 3130 3129 3127 3126 3124 3121 3118 3112 3107 3102 3096 3089 3083 3077 3071 3065 3060 3055 3051 3047 3044
3159 3159 3160 3159 3159 3158 3157 3156 3154 3152 3152 3151 3151 3149 3146 3143 3140 3137 3134 3132 3130 3129 3128 3126 3125 3123 3120 3117 3116 3111 3106 3100 3094 3087 3081 3075 3069 3063 3057 3052 3047 3044 3040 3037
3157 3157 3158 3156 3155 3155 3154 3153 3152 3151 3151 3152 3150 3147 3144 3140 3137 3134 3132 3130 3129 3127 3123 3123 3122 3116 3115 3113 3108 3104 3098 3092 3086 3080 3074 3067 3061 3055 3049 3044 3040 3036 3033 3030
3155 3156 3155 3154 3154 3153 3151 3151 3151 3150 3149 3149 3147 3146 3142 3139 3135 3133 3131 3129 3127 3125 3122 3120 3115 3113 3110 3107 3103 3097 3091 3086 3079 3073 3066 3059 3053 3047 3042 3037 3032 3028 3026 3024
3154 3154 3153 3153 3153 3150 3152 3151 3150 3149 3148 3146 3145 3144 3140 3137 3134 3131 3129 3127 3124 3122 3118 3116 3113 3109 3106 3101 3096 3091 3085 3079 3072 3065 3058 3052 3046 3041 3035 3030 3025 3022 3019 3018
3152 3152 3152 3151 3151 3149 3150 3149 3148 3148 3146 3144 3143 3141 3138 3134 3131 3128 3125 3123 3120 3118 3115 3112 3108 3104 3100 3095 3091 3085 3079 3072 3066 3059 3053 3046 3040 3034 3029 3024 3020 3016 3013 3012
3150 3150 3150 3150 3149 3149 3148 3148 3147 3146 3145 3142 3140 3137 3134 3131 3128 3125 3122 3120 3118 3115 3111 3108 3104 3099 3095 3090 3085 3079 3073 3068 3061 3054 3048 3041 3035 3028 3022 3017 3014 3010 3008 3007
3148 3148 3149 3148 3148 3147 3147 3146 3145 3144 3143 3139 3137 3134 3132 3129 3128 3125 3120 3117 3114 3111 3107 3103 3099 3095 3090 3086 3080 3075 3070 3064 3057 3050 3043 3036 3028 3021 3015 3009 3007 3005 3003 3004
3146 3146 3146 3145 3146 3146 3144 3144 3142 3144 3145 3137 3134 3132 3129 3127 3125 3121 3117 3114 3111 3107 3103 3099 3095 3091 3087 3083 3078 3072 3066 3061 3054 3046 3039 3032 3024 3016 3010 3005 3002 3000 3001 3002
3145 3144 3144 3144 3144 3144 3142 3142 3142 3140 3136 3134 3131 3129 3127 3124 3121 3117 3114 3110 3107 3103 3100 3096 3093 3089 3084 3080 3075 3070 3064 3058 3050 3043 3037 3029 3021 3014 3008 3003 3000 2999 2998 2999
3143 3143 3143 3145 3143 3141 3139 3138 3137 3135 3132 3130 3128 3126 3123 3120 3117 3114 3111 3107 3104 3100 3097 3094 3090 3085 3081 3077 3073 3068 3063 3056 3049 3042 3034 3027 3019 3012 3007 3003 3000 2999 2998 2998
3140 3140 3140 3141 3140 3138 3137 3136 3134 3131 3129 3127 3124 3122 3120 3117 3114 3112 3110 3107 3103 3098 3093 3090 3086 3083 3079 3075 3070 3065 3060 3054 3048 3041 3034 3026 3019 3012 3008 3004 3001 3000 3000 2999
3138 3138 3138 3137 3137 3136 3134 3132 3130 3128 3125 3123 3120 3118 3116 3114 3112 3110 3107 3103 3099 3095 3090 3086 3083 3080 3077 3072 3068 3063 3058 3053 3047 3041 3034 3028 3020 3015 3010 3007 3004 3002 3002 3002
3135 3135 3136 3135 3135 3133 3131 3128 3125 3124 3122 3120 3117 3115 3114 3112 3110 3107 3103 3100 3096 3092 3087 3083 3079 3076 3073 3069 3066 3061 3057 3052 3047 3042 3035 3030 3023 3018 3014 3011 3008 3006 3005 3004